Regional Weather Roundup
Issued by NWS

Home | Current Version | Previous Version | Graphics & Text | Print | Product List | Glossary On
Versions: 1 2 3 4 5 6 7 8 9 10 11 12 13 14 15 16 17 18 19 20 21 22 23 24 25 26 27 28 29 30 31 32 33 34 35 36 37 38 39 40 41 42 43 44 45 46 47 48 49 50
511
ASUS43 KDTX 302010
RWRMI
MICHIGAN HOURLY REGIONAL WEATHER ROUNDUP
NATIONAL WEATHER SERVICE DETROIT/PONTIAC MI
400 PM EDT SAT JUL 30 2016

NOTE: "FAIR" INDICATES FEW OR NO CLOUDS BELOW 12,000 FEET WITH NO
SIGNIFICANT WEATHER AND/OR OBSTRUCTION TO VISIBILITY.

MIZ047>049-052>055-059>063-066>070-074>076-081>083-302100-
SOUTHEAST LOWER MICHIGAN

CITY           SKY/WX    TMP DP  RH WIND       PRES   REMARKS
ADRIAN         CLOUDY    80  68  66 E5        29.96F
ALMA           RAIN      70  68  93 E7        30.03S
ANN ARBOR      PTSUNNY   76  69  79 MISG      29.97F
BAD AXE        CLOUDY    70  61  74 E6        30.04S
CARO           DRIZZLE   71  65  83 NE6       30.02S
DETROIT CITY   CLOUDY    78  68  71 N9        29.96F
DETROIT        CLOUDY    77  66  68 NE6       29.97S
FLINT          RAIN      71  66  84 NE5       30.01S
GROSSE ILE     PTSUNNY   77  70  80 NE6       29.95S
HILLSDALE      PTSUNNY   75  68  78 E7        29.97F
HOWELL         CLOUDY    73  69  88 N6        29.99F

CITY           SKY/WX    TMP DP  RH WIND       PRES   REMARKS
JACKSON        CLOUDY    75  69  81 NE5       29.97F
LAMBERTVILLE   CLOUDY    78  71  77 E9        29.95F
LANSING        CLOUDY    70  64  81 N8        30.00F
LAPEER         PTSUNNY   71  65  79 NE6       30.01F
MASON          CLOUDY    72  66  82 NE6       30.00S
MONROE         PTSUNNY   78  71  78 E7        29.94S
MT. CLEMENS    PTSUNNY   76  68  75 N7        29.94F
PONTIAC        CLOUDY    73  67  81 NE8       29.98F
PORT HOPE        N/A     71  62  73 NE15      30.03F
PORT HURON     CLOUDY    73  66  78 NE8G16    29.98F
TRI CITIES     LGT RAIN  70  65  84 NE15      30.03S
MIDLAND        CLOUDY    72  62  71 NE8       30.03S
TROY           PTSUNNY   75  67  76 NE7       30.00R
SAGINAW HB     LGT RAIN  70  66  88 N7        30.02S
$$
MIZ043>046-050>051-056>058-064>065-071>073-077>080-302100-
SOUTHWEST LOWER MICHIGAN

CITY           SKY/WX    TMP DP  RH WIND       PRES   REMARKS
BATTLE CREEK   CLOUDY    69  67  93 N8        30.00S
BENTON HARBOR  MOSUNNY   77  66  68 VRB7      29.97F
BIG RAPIDS     CLOUDY    71  65  82 E8        30.04S
COLDWATER      CLOUDY    75  68  80 N8        29.97S
FREMONT        CLOUDY    72  67  84 NE8       30.03R
HOLLAND        CLOUDY    73  64  73 NE7       30.01S
GRAND RAPIDS   LGT RAIN  70  65  84 NE7       30.02S
IONIA          LGT RAIN  68  65  91 NE10      30.01F
KALAMAZOO      CLOUDY    75  66  73 CALM      29.99S
LUDINGTON      CLOUDY    76  63  62 E7        30.01S
MARSHALL       PTSUNNY   73  71  93 CALM      29.98F
MOUNT PLEASANT CLOUDY    73  63  71 E9        30.03S
MUSKEGON       CLOUDY    76  65  68 E7        30.01S
SOUTH HAVEN    CLOUDY    73  67  82 NE6       29.99S
$$
MIZ016>042-302100-
NORTHERN LOWER MICHIGAN

CITY           SKY/WX    TMP DP  RH WIND       PRES   REMARKS
ALPENA         SUNNY     77  52  41 SE12G17   30.08F
BEAVER ISLAND  SUNNY     78  52  40 E8        30.07F
BELLAIRE       MOSUNNY   82  49  31 NE10G17   30.02F
CADILLAC       CLOUDY    75  59  58 SE8       30.04S
CHARLEVOIX     SUNNY     79  49  34 NE13G20   30.07F
FRANKFORT      SUNNY     78  59  52 N12       30.01F
GAYLORD        MOSUNNY   78  48  34 NE9       30.07S
GRAYLING       CLOUDY    81  49  32 E8        30.05S
HARBOR SPRINGS SUNNY     79  49  35 E12G18    30.06S
HOUGHTON LAKE  PTSUNNY   77  58  51 SE13      30.05F
MANISTEE       CLOUDY    77  60  55 SE6       30.01S
OSCODA         CLOUDY    72  58  60 NE16      30.06S
PELLSTON       SUNNY     79  44  28 E13G20    30.08S
ROGERS CITY    SUNNY     75  45  34 E13G18    30.10S
TRAVERSE CITY  PTSUNNY   83  53  35 N12       30.00F
$$
MIZ007>008-015-302100-
EASTERN UPPER MICHIGAN

CITY           SKY/WX    TMP DP  RH WIND       PRES   REMARKS
KINROSS        MOSUNNY   78  52  40 E9G18     30.08F
MACKINAC ISLAN SUNNY     73  55  52 E12G17    30.09S
NEWBERRY       MOSUNNY   77  54  44 S6        30.08S
S. S. MARIE    SUNNY     79  53  40 VRB3      30.07F
MUNISING         N/A     75  63  66 NE15      30.07F
$$
MIZ004>006-011>014-085-302100-
CENTRAL UPPER MICHIGAN

CITY           SKY/WX    TMP DP  RH WIND       PRES   REMARKS
MANISTIQUE     SUNNY     76  54  46 SE9       30.08S
ESCANABA       SUNNY     75  55  50 S9        30.07S
MENOMINEE      SUNNY    N/A N/A N/A E13       30.08S
SAWYER-GWINN   MOSUNNY   75  46  35 NE5       30.09S
$$
MIZ001>003-009>011-084-302100-
WESTERN UPPER MICHIGAN

CITY           SKY/WX    TMP DP  RH WIND       PRES   REMARKS
IRON MOUNTAIN  PTSUNNY   78  49  35 SE9       30.07S
HOUGHTON       SUNNY     77  56  48 E9        30.07S
COPPER HARBOR    N/A     76  53  44 VRB6      30.06F
IRONWOOD       PTSUNNY   75  57  53 N3        30.03S
$$

ABBREVIATIONS USED IN REMARKS
   TC - TEMPERATURE IN CELSIUS
  WCI - WIND CHILL INDEX
   HX - HEAT INDEX
  VSB - VISIBILITY





USA.gov is the U.S. government's official web portal to all federal, state and local government web resources and services.